Regional Weather Roundup
Issued by NWS

Home | Current Version | Previous Version | Graphics & Text | Print | Product List | Glossary On
Versions: 1 2 3 4 5 6 7 8 9 10 11 12 13 14 15 16 17 18 19 20 21 22 23 24 25 26 27 28 29 30 31 32 33 34 35 36 37 38 39 40 41 42 43 44 45 46 47 48 49 50
814
ASUS45 KPSR 041110
RWRAZ

ARIZONA HOURLY REGIONAL WEATHER ROUNDUP
NATIONAL WEATHER SERVICE PHOENIX AZ
400 AM MST SUN DEC 04 2016

NOTE: FAIR INDICATES FEW OR NO CLOUDS BELOW 12,000 FEET WITH NO
SIGNIFICANT WEATHER AND/OR OBSTRUCTIONS TO VISIBILITY.

AZZ001>003-036-041200-
NORTHWEST ARIZONA

CITY           SKY/WX    TMP DP  RH WIND       PRES   REMARKS
BULLHEAD CITY  CLEAR     55  18  22 N16       30.13R
KINGMAN        CLEAR     33  11  39 E12       30.15F WCI  24
$$

AZZ004>008-015-016-018-041200-
NORTH CENTRAL ARIZONA

CITY           SKY/WX    TMP DP  RH WIND       PRES   REMARKS
GRAND CANYON   CLEAR     10   7  87 CALM      30.18F
PRESCOTT       CLEAR     25  15  66 SW3       30.14S
FLAGSTAFF      CLEAR     27   7  42 E14       30.14S WCI  16
PAYSON         CLEAR     41   3  20 E16       30.12S
PAGE           CLEAR     30   9  41 CALM      30.19F
$$

AZZ009>014-017-041200-
NORTHEAST ARIZONA

CITY           SKY/WX    TMP DP  RH WIND       PRES   REMARKS
WINSLOW        PTCLDY    18   9  68 W8        30.21R WCI   8
SAINT JOHNS    CLEAR     21  16  81 CALM      30.16R
WINDOW ROCK    CLEAR     16  10  77 NE3       30.17R
SHOW LOW       FLURRIES  18  12  79 N7        30.15R WCI   8
$$

AZZ023-041200-
GREATER PHOENIX AREA

CITY           SKY/WX    TMP DP  RH WIND       PRES   REMARKS
PHOENIX        CLEAR     47  29  49 CALM      30.03S
BUCKEYE        CLEAR     48  18  29 N10       30.06S
LUKE AFB       CLEAR     43  25  50 N8        30.03F
DEER VALLEY    CLEAR     47  17  30 NE7       30.04S
SCOTTSDALE     CLEAR     53  14  21 NW5       30.05S
MESA-GATEWAY   CLEAR     46  21  36 NE5       30.04S
$$

AZZ027-028-041200-
SOUTHWEST MARICOPA COUNTY AND PINAL COUNTY

CITY           SKY/WX    TMP DP  RH WIND       PRES   REMARKS
CASA GRANDE    NOT AVBL
$$

AZZ503-504-507>509-041200-
SOUTHEAST ARIZONA

CITY           SKY/WX    TMP DP  RH WIND       PRES   REMARKS
TUCSON         CLEAR     39  25  57 CALM      30.04S
DAVIS-MONTHAN  CLEAR     37  26  63 SE3       30.03S
NOGALES        CLEAR     33  27  78 CALM      30.01S
SIERRA VISTA   CLEAR     35  30  81 S2        30.05R
DOUGLAS        CLEAR     34  33  96 NE6       30.03S WCI  29
SAFFORD        CLEAR     34  31  88 CALM      30.04S
$$

AZZ020-021-025-026-031-041200-
SOUTHWEST ARIZONA

CITY           SKY/WX    TMP DP  RH WIND       PRES   REMARKS
YUMA           CLEAR     55  11  17 N13       30.04F
$$

CAZ031-033-041-043-047-048-061-041200-
SOUTHERN CALIFORNIA

CITY           SKY/WX    TMP DP  RH WIND       PRES   REMARKS
DOWNTOWN L.A.  CLEAR     47  33  58 CALM      30.05F
L.A. AIRPORT   CLEAR     50  30  46 E5        30.06F
SAN DIEGO      CLEAR     49  31  49 CALM      30.08F
BURBANK        CLEAR     45  25  45 CALM      30.05F
ONTARIO        PTCLDY    47  24  40 N5        30.06S
RIVERSIDE      CLEAR     53  23  31 NE6       30.06S
PALM SPRINGS   CLEAR     54  21  27 N10       30.09F
EL CENTRO NAS  CLEAR     44   6  21 W9        30.09S
IMPERIAL       CLEAR     45  16  31 W7        30.06F
BLYTHE         CLEAR     50  12  21 CALM      30.10S
NEEDLES        CLEAR     53  15  22 N13       30.12F
$$

NVZ020-UTZ003-041200-
SOUTHERN NEVADA-UTAH

CITY           SKY/WX    TMP DP  RH WIND       PRES   REMARKS
LAS VEGAS      CLEAR     40  12  32 S6        30.18S
SALT LAKE CITY PTCLDY    29  20  69 SE13      30.20F WCI  19
$$

NMZ009-TXZ055-041200-
NEW MEXICO-WEST TEXAS

CITY           SKY/WX    TMP DP  RH WIND       PRES   REMARKS
ALBUQUERQUE    CLOUDY    29  16  58 N8        30.12S WCI  21
EL PASO        PTCLDY    40  36  86 NW3       30.00F
$$


........................KEY........................
SKY/WX - SKY CONDITION/WEATHER
TMP    - TEMPERATURE IN FAHRENHEIT
DP     - DEW POINT IN FAHRENHEIT
RH     - RELATIVE HUMIDITY IN PERCENT
WIND   - DIRECTION AND SPEED IN MILES PER HOUR (MPH)
VRB    - VARIABLE WIND DIRECTION
PRES   - MEAN SEA LEVEL PRESSURE IN INCHES OF MERCURY
         F - FALLING PRESSURE   R - RISING PRESSURE
         S - STEADY PRESSURE
VSB    - VISIBILITY IN MILES
HX     - HEAT INDEX IN FAHRENHEIT
WCI    - WIND CHILL INDEX IN FAHRENHEIT
TC     - TEMPERATURE IN CELSIUS WHICH IS ALSO KNOWN AS
         TEMPERATURE IN CENTIGRADE
AFB    - AIR FORCE BASE
         LUKE AFB IS LUKE AIR FORCE BASE
         DAVIS-MONTHAN IS DAVIS-MONTHAN AIR FORCE BASE
NAS    - NAVAL AIR STATION
         EL CENTRO NAS IS EL CENTRO NAVAL AIR STATION
N/A    - NOT AVAILABLE





USA.gov is the U.S. government's official web portal to all federal, state and local government web resources and services.